x

8762482 - Bayou Gauche, La (bygl1) Weather Station

6:48pm - Mon 20th Nov 2017 All times are CST. -6 hours from GMT.

  • Wind
    2mph, 5mph gusts
  • Sea Temp 63°f
  • Air Temp 54°f
  • Sea Pressure 1020.4mb
  • 8762482 - Bayou Gauche, La
  • 8762482 - Bayou Gauche, La

More Historic Weather Station data

Upgrade to MSW Pro to gain access to the past 30 days of data for over 8000 Wavebouys and Weather Stations around the globe.

Join

Comparision Forecast

View Surf forecast
   
Mon 11/20 6:48pm 2 5 mph 1020.4mb 63f 54f
6:42pm 1 5 mph 1020.4mb 63f 54f
6:36pm 2 5 mph 1020.4mb 63f 54f
6:30pm 1 6 mph 1020.3mb 63f 54f
6:24pm 1 2 mph 1020.4mb 63f 54f
6:18pm  -  2 mph 1020.4mb 63f 55f
6:12pm 1 1 mph 1020.4mb 63f 56f
6:06pm  -  0 mph 1020.3mb 63f 56f
6:00pm  -  0 mph 1020.2mb 63f 56f
5:54pm  -  0 mph 1020.1mb 64f 56f
5:48pm  -  1 mph 1020.2mb 64f 56f
5:42pm  -  1 mph 1020.2mb 64f 56f
5:36pm  -  1 mph 1020.2mb 64f 56f
5:30pm  -  2 mph 1020.2mb 64f 56f
5:24pm 1 2 mph 1020.1mb 64f 56f
5:18pm  -  2 mph 1020.2mb 64f 57f
5:12pm 2 2 mph 1020.3mb 64f 57f
5:06pm 1 2 mph 1020.3mb 64f 58f
5:00pm 1 2 mph 1020.2mb 64f 58f
4:54pm  -  2 mph 1020.2mb 64f 58f
4:48pm 2 3 mph 1020.2mb 64f 58f
4:42pm 3 5 mph 1020.2mb 64f 58f
4:36pm 1 2 mph 1020.2mb 64f 59f
4:30pm 1 2 mph 1020.3mb 64f 59f
4:24pm 1 2 mph 1020.4mb 64f 60f
4:18pm 1 2 mph 1020.4mb 64f 61f
4:12pm 1 2 mph 1020.5mb 64f 61f
4:06pm  -  2 mph 1020.5mb 64f 61f
4:00pm 2 2 mph 1020.5mb 64f 61f
3:54pm 2 3 mph 1020.5mb 64f 62f
3:48pm 2 6 mph 1020.4mb 64f 62f
3:42pm 5 6 mph 1020.4mb 64f 62f
3:36pm 2 5 mph 1020.4mb 64f 63f
3:30pm 3 5 mph 1020.4mb 64f 64f
3:24pm  -  3 mph 1020.3mb 64f 65f
3:18pm 1 2 mph 1020.2mb 64f 64f
3:12pm  -  3 mph 1020.3mb 64f 63f
3:06pm 2 5 mph 1020.3mb 64f 63f
3:00pm  -  3 mph 1020.2mb 64f 64f
2:54pm 3 7 mph 1020.2mb 64f 63f
2:48pm 2 7 mph 1020.2mb 64f 63f
2:42pm 1 5 mph 1020.5mb 64f 63f
2:36pm 2 5 mph 1020.5mb 64f 63f
2:30pm  -  3 mph 1020.6mb 64f 64f
2:24pm  -  3 mph 1020.6mb 63f 63f
2:18pm 2 3 mph 1020.9mb 63f 62f
2:12pm  -  5 mph 1021mb 63f 62f
2:06pm 2 5 mph 1021.1mb 63f 62f
2:00pm  -  5 mph 1021.2mb 63f 62f
1:54pm 2 5 mph 1021mb 63f 62f
1:48pm 2 6 mph 1021.1mb 63f 61f
1:42pm 1 5 mph 1021.1mb 63f 62f
1:36pm 2 5 mph 1021.2mb 63f 61f
1:30pm 2 3 mph 1021.3mb 63f 61f
1:24pm  -  3 mph 1021.2mb 63f 61f
1:18pm 2 6 mph 1021.4mb 63f 61f
1:12pm 2 3 mph 1021.4mb 63f 61f
1:06pm 2 5 mph 1021.3mb 63f 61f
1:00pm 2 5 mph 1021.3mb 63f 60f
12:54pm 3 6 mph 1021.4mb 63f 60f
12:48pm 3 5 mph 1021.7mb 63f 60f
12:42pm 1 3 mph 1021.9mb 63f 60f
12:36pm 1 3 mph 1021.8mb 63f 58f
12:30pm 2 3 mph 1022mb 63f 58f
12:24pm 1 2 mph 1022.1mb 62f 58f
12:18pm  -  3 mph 1022.4mb 62f 58f
12:12pm 2 3 mph 1022.6mb 62f 59f
12:06pm 1 3 mph 1022.9mb 62f 59f
12:00pm  -  6 mph 1022.9mb 62f 59f
11:54am 2 6 mph 1022.8mb 62f 59f
11:48am 5 6 mph 1023mb 62f 58f
11:42am 5 6 mph 1023.2mb 62f 58f
11:36am 2 5 mph 1023.3mb 62f 57f
11:30am 2 3 mph 1023.3mb 62f 57f
11:24am 1 6 mph 1023.4mb 62f 56f
11:18am 3 6 mph 1023.3mb 62f 56f
11:12am  -  3 mph 1023.2mb 62f 56f
11:06am 2 6 mph 1023.3mb 62f 56f
11:00am 5 9 mph 1023.5mb 62f 56f
10:54am 2 6 mph 1023.5mb 62f 56f
10:48am 3 7 mph 1023.7mb 62f 56f
10:42am 3 9 mph 1023.8mb 62f 56f
10:36am 6 8 mph 1023.8mb 62f 56f
10:30am 6 8 mph 1023.9mb 62f 56f
10:24am 2 8 mph 1023.8mb 62f 56f
10:18am 6 8 mph 1023.9mb 62f 56f
10:12am 3 8 mph 1024.1mb 62f 56f
10:06am 3 9 mph 1024.2mb 62f 55f
10:00am 5 7 mph 1024.4mb 62f 55f
9:54am 3 7 mph 1024.4mb 62f 54f
9:48am 5 9 mph 1024.5mb 62f 55f
9:42am 6 9 mph 1024.4mb 62f 54f
9:36am 7 13 mph 1024.5mb 62f 54f
9:30am 3 6 mph 1024.6mb 62f 54f
9:24am 3 6 mph 1024.6mb 62f 55f
9:18am 3 7 mph 1024.7mb 62f 54f
9:12am 2 7 mph 1024.6mb 62f 53f
9:06am 3 7 mph 1024.5mb 62f 52f
9:00am 3 7 mph 1024.5mb 62f 52f
8:54am 2 7 mph 1024.7mb 62f 51f
8:48am 2 5 mph 1024.7mb 62f 51f
8:42am 2 6 mph 1024.8mb 62f 52f
8:36am 3 7 mph 1024.4mb 62f 52f
8:30am 3 6 mph 1024.4mb 62f 51f
8:24am 2 6 mph 1024.4mb 62f 50f
8:18am 2 8 mph 1024.5mb 62f 50f
8:12am 2 7 mph 1024.6mb 62f 50f
8:06am 2 7 mph 1024.6mb 62f 49f
8:00am 1 7 mph 1024.6mb 62f 49f
7:54am 3 7 mph 1024.4mb 62f 48f
7:48am 2 7 mph 1024.3mb 62f 48f
7:42am 3 6 mph 1024.2mb 62f 48f
7:36am 3 9 mph 1024.1mb 62f 48f
7:30am 5 8 mph 1024.2mb 62f 48f
7:24am 5 7 mph 1024.2mb 62f 48f
7:18am 3 8 mph 1024.1mb 62f 48f
7:12am 3 8 mph 1024.1mb 62f 48f
7:06am 3 8 mph 1024.1mb 62f 47f
7:00am 3 9 mph 1024mb 62f 47f
6:54am 3 8 mph 1023.7mb 62f 47f
6:48am 3 11 mph 1023.8mb 62f 47f
6:42am 7 11 mph 1023.9mb 62f 47f
6:36am 5 8 mph 1023.8mb 62f 47f
6:30am 3 9 mph 1023.7mb 62f 47f
6:24am 6 9 mph 1023.8mb 63f 47f
6:18am 5 9 mph 1023.8mb 63f 47f
6:12am 5 10 mph 1023.7mb 63f 47f
6:06am 5 9 mph 1023.7mb 63f 47f
6:00am 5 9 mph 1023.7mb 63f 47f
5:54am 5 10 mph 1023.7mb 63f 47f
5:48am 6 9 mph 1023.6mb 63f 47f
5:42am 5 10 mph 1023.6mb 63f 47f
5:36am 5 8 mph 1023.6mb 63f 47f
5:30am 5 9 mph 1023.4mb 63f 47f
5:24am 3 6 mph 1023.5mb 63f 47f
5:18am 2 5 mph 1023.4mb 63f 47f
5:12am 1 3 mph 1023.5mb 63f 47f
5:06am 2 6 mph 1023.5mb 63f 47f
5:00am 3 8 mph 1023.3mb 63f 47f
4:48am 3 7 mph 1022.9mb 63f 48f
4:42am 3 6 mph 1022.9mb 63f 47f
4:36am 2 7 mph 1022.8mb 63f 47f
4:30am 3 7 mph 1022.8mb 63f 48f
4:24am 3 7 mph 1022.8mb 63f 48f
4:18am 2 6 mph 1022.9mb 63f 48f
4:12am 2 8 mph 1023mb 63f 49f
4:06am 6 8 mph 1022.9mb 63f 49f
4:00am 5 9 mph 1022.9mb 63f 49f
3:54am 3 7 mph 1022.8mb 63f 49f
3:48am 3 6 mph 1022.8mb 63f 49f
3:42am 3 8 mph 1022.8mb 63f 49f
3:36am 3 7 mph 1022.9mb 63f 49f
3:30am 3 7 mph 1022.9mb 63f 49f
3:24am 3 8 mph 1022.9mb 63f 49f
3:18am 3 8 mph 1023mb 63f 49f
3:12am 2 6 mph 1023.2mb 63f 49f
3:06am 2 5 mph 1023.3mb 63f 49f
3:00am 2 5 mph 1023.3mb 63f 49f
2:54am 2 6 mph 1023.3mb 63f 49f
2:48am 2 6 mph 1023.2mb 63f 49f
2:42am 2 6 mph 1023.3mb 63f 49f
2:36am 2 7 mph 1023.3mb 63f 49f
2:30am 2 5 mph 1023.3mb 63f 49f
2:24am 2 5 mph 1023.2mb 63f 49f
2:18am 2 3 mph 1023.3mb 63f 48f
2:12am  -  1 mph 1023.4mb 63f 48f
2:06am  -  1 mph 1023.4mb 63f 48f
2:00am  -  1 mph 1023.4mb 63f 48f
1:54am  -  0 mph 1023.6mb 63f 48f
1:48am  -  0 mph 1023.6mb 63f 48f
1:42am  -  0 mph 1023.6mb 63f 48f
1:36am  -  0 mph 1023.6mb 63f 49f
1:30am  -  2 mph 1023.6mb 63f 49f
1:24am  -  1 mph 1023.6mb 63f 49f
1:18am  -  3 mph 1023.5mb 63f 50f
1:12am 1 3 mph 1023.5mb 63f 50f
1:06am 1 5 mph 1023.5mb 63f 50f
1:00am 2 3 mph 1023.5mb 63f 50f
12:54am  -  2 mph 1023.6mb 63f 49f
12:48am  -  3 mph 1023.5mb 63f 49f
12:42am 1 3 mph 1023.6mb 63f 49f
12:36am  -  2 mph 1023.7mb 63f 49f
12:30am  -  0 mph 1023.7mb 63f 48f
12:24am  -  0 mph 1023.7mb 63f 48f
12:18am  -  0 mph 1023.7mb 63f 48f
12:12am  -  0 mph 1023.7mb 64f 48f
12:06am  -  0 mph 1023.7mb 64f 48f
12:00am  -  0 mph 1023.6mb 64f 48f
Sun 11/19 11:54pm  -  1 mph 1023.5mb 64f 48f
11:48pm  -  1 mph 1023.6mb 64f -
11:42pm  -  1 mph 1023.6mb 64f -
11:36pm  -  0 mph 1023.7mb 64f -
11:30pm  -  2 mph 1023.7mb 64f 49f
11:24pm  -  0 mph 1023.7mb 64f 49f
11:18pm  -  0 mph 1023.6mb 64f 49f
11:12pm  -  0 mph 1023.6mb 64f 49f
11:06pm  -  0 mph 1023.6mb 64f 49f
11:00pm  -  1 mph 1023.7mb 64f 49f
10:54pm  -  0 mph 1023.8mb 64f 49f
10:48pm  -  1 mph 1023.8mb 64f 49f
10:42pm  -  1 mph 1023.8mb 64f 48f
10:36pm  -  2 mph 1023.8mb 64f 48f
10:30pm 1 2 mph 1023.9mb 64f 48f
10:24pm 1 2 mph 1023.8mb 64f 49f
10:18pm 2 3 mph 1023.9mb 64f 49f
10:12pm 2 3 mph 1023.8mb 64f 49f
10:06pm 2 2 mph 1023.8mb 64f 50f
10:00pm 1 2 mph 1023.8mb 64f 50f
9:54pm  -  3 mph 1023.7mb 64f 50f
9:48pm 2 3 mph 1023.8mb 64f 50f
9:42pm 1 3 mph 1023.7mb 64f 50f
9:36pm 1 2 mph 1023.8mb 64f 51f
9:30pm  -  1 mph 1023.7mb 64f 51f
9:24pm  -  1 mph 1023.6mb 64f 50f
9:18pm  -  1 mph 1023.6mb 64f 50f
9:12pm  -  1 mph 1023.5mb 64f 51f
9:06pm  -  2 mph 1023.6mb 64f 51f
9:00pm  -  1 mph 1023.5mb 64f 51f
8:54pm  -  2 mph 1023.5mb 64f 51f
8:48pm 1 3 mph 1023.5mb 64f 51f
8:36pm 1 2 mph 1023.4mb 64f 52f
8:30pm  -  0 mph 1023.2mb 64f 52f
8:24pm  -  0 mph 1023.1mb 64f 52f
8:18pm  -  1 mph 1023mb 64f 52f
8:12pm  -  1 mph 1022.8mb 65f 52f
8:06pm  -  2 mph 1022.8mb 65f 52f
8:00pm  -  2 mph 1022.7mb 65f 52f
7:54pm  -  1 mph 1022.6mb 65f 52f
7:48pm  -  2 mph 1022.6mb 65f 52f
7:42pm  -  1 mph 1022.7mb 65f 52f
7:36pm  -  1 mph 1022.6mb 65f 53f
7:30pm  -  1 mph 1022.7mb 65f 53f
7:24pm  -  1 mph 1022.7mb 65f 53f
7:18pm  -  1 mph 1022.6mb 65f 53f
7:12pm  -  0 mph 1022.7mb 65f 53f
7:06pm  -  1 mph 1022.6mb 65f 54f
7:00pm  -  1 mph 1022.6mb 65f 54f
6:54pm  -  2 mph 1022.6mb 65f 54f
6:48pm  -  2 mph 1022.6mb 65f 54f
6:42pm  -  2 mph 1022.4mb 65f 54f
6:36pm  -  1 mph 1022.3mb 65f 54f
6:30pm  -  2 mph 1022.3mb 65f 54f
6:24pm  -  2 mph 1022.1mb 65f 54f
6:18pm  -  2 mph 1022.1mb 65f 55f
6:12pm  -  3 mph 1022.1mb 65f 55f
6:06pm  -  5 mph 1022mb 65f 55f
6:00pm  -  2 mph 1021.9mb 66f 55f
5:54pm  -  1 mph 1021.8mb 66f 55f
5:48pm  -  1 mph 1021.7mb 66f 55f
5:42pm  -  1 mph 1021.7mb 66f 55f
5:36pm  -  1 mph 1021.6mb 66f 56f
5:30pm  -  1 mph 1021.5mb 66f 56f
5:24pm  -  2 mph 1021.5mb 66f 56f
5:18pm  -  2 mph 1021.4mb 66f 57f
5:12pm  -  1 mph 1021.3mb 66f 57f
5:06pm  -  2 mph 1021.2mb 66f 58f
5:00pm  -  1 mph 1021.2mb 66f 58f
4:54pm  -  5 mph 1021.2mb 66f 59f
4:48pm  -  2 mph 1021.1mb 66f 60f
4:42pm  -  3 mph 1021.1mb 66f 60f
4:36pm 1 3 mph 1021mb 66f 61f
4:30pm 1 3 mph 1021mb 66f 62f
4:24pm 1 3 mph 1021mb 66f 62f
4:18pm  -  6 mph 1021mb 66f 62f
4:12pm 1 5 mph 1020.8mb 66f 62f
4:06pm 1 6 mph 1020.7mb 66f 62f
4:00pm 1 3 mph 1020.6mb 66f 63f
3:54pm 2 5 mph 1020.7mb 66f 62f
3:48pm 1 6 mph 1020.7mb 66f 63f
3:42pm 1 5 mph 1020.6mb 66f 63f
3:36pm 1 5 mph 1020.6mb 66f 62f
3:30pm 1 7 mph 1020.5mb 66f 63f
3:24pm 2 5 mph 1020.4mb 66f 63f
3:18pm 1 6 mph 1020.4mb 66f 62f
3:12pm 2 7 mph 1020.3mb 66f 62f
3:06pm 3 8 mph 1020.3mb 66f 62f
3:00pm 2 11 mph 1020.3mb 66f 62f
2:54pm 1 8 mph 1020.2mb 66f 62f
2:48pm 2 9 mph 1020.1mb 66f 62f
2:42pm 1 6 mph 1020.1mb 66f 62f
2:36pm 2 7 mph 1020.2mb 66f 62f
2:30pm 1 7 mph 1020.3mb 66f 63f
2:24pm 2 8 mph 1020.2mb 66f 62f
2:18pm 2 5 mph 1020.3mb 66f 63f
2:12pm 2 11 mph 1020.3mb 66f 62f
2:06pm 1 7 mph 1020.3mb 66f 62f
2:00pm 2 6 mph 1020.5mb 66f 61f
1:54pm 2 8 mph 1020.6mb 66f 62f
1:48pm 3 7 mph 1020.6mb 66f 62f
1:42pm 1 10 mph 1020.7mb 66f 61f
1:36pm 1 7 mph 1020.9mb 66f 61f
1:30pm 2 6 mph 1020.8mb 66f 62f
1:24pm 2 8 mph 1020.9mb 66f 62f
1:18pm 3 10 mph 1021mb 66f 61f
1:12pm 2 7 mph 1021mb 66f 61f
1:06pm 3 7 mph 1021.1mb 66f 60f
1:00pm 2 9 mph 1021.2mb 66f 61f
12:54pm 2 9 mph 1021.2mb 66f 61f
12:48pm 1 6 mph 1021.2mb 66f 61f
12:42pm 3 7 mph 1021.3mb 66f 61f
12:36pm 1 7 mph 1021.3mb 66f 61f
12:30pm 2 9 mph 1021.4mb 66f 60f
12:24pm 3 8 mph 1021.5mb 66f 60f
12:18pm 2 9 mph 1021.6mb 66f 60f
12:12pm 1 8 mph 1021.8mb 66f 60f
12:06pm 2 9 mph 1021.8mb 66f 60f
12:00pm 3 7 mph 1021.9mb 66f 59f
11:54am 3 9 mph 1021.9mb 66f 59f
11:48am 1 7 mph 1022.1mb 66f 60f
11:42am 2 9 mph 1022.2mb 66f 60f
11:36am 3 9 mph 1022.3mb 66f 58f
11:30am 3 11 mph 1022.4mb 66f 59f
11:24am 6 13 mph 1022.4mb 66f 58f
11:18am 6 10 mph 1022.5mb 66f 58f
11:12am 5 9 mph 1022.7mb 66f 58f
11:06am 6 14 mph 1022.7mb 66f 58f
11:00am 6 16 mph 1022.8mb 66f 57f
10:54am 6 13 mph 1023mb 66f 57f
10:48am 6 16 mph 1023.1mb 66f 56f
10:42am 7 13 mph 1023.1mb 66f 57f
10:36am 3 8 mph 1023.2mb 66f 57f
10:30am 3 8 mph 1023.3mb 66f 56f
10:24am 2 9 mph 1023.3mb 66f 57f
10:18am 5 7 mph 1023.3mb 66f -
10:12am 2 11 mph 1023.5mb 66f -
10:06am 6 11 mph 1023.4mb 66f -
10:00am 1 10 mph 1023.5mb 66f -
9:54am 3 10 mph 1023.6mb 66f -
9:48am 6 14 mph 1023.6mb 66f -
9:42am 5 11 mph 1023.6mb 66f -
9:36am 5 17 mph 1023.7mb 66f -
9:30am 3 8 mph 1023.8mb 66f -
9:24am 5 8 mph 1023.7mb 66f -
9:18am 5 9 mph 1023.6mb 67f -
9:12am 3 9 mph 1023.6mb 67f -
9:06am 3 14 mph 1023.7mb 67f -
9:00am 6 10 mph 1023.5mb 67f -
8:54am 3 9 mph 1023.5mb 67f -
8:48am 2 21 mph 1023.5mb 67f -
7:54am 6 13 mph 1022.8mb 67f -
7:48am 5 13 mph 1022.7mb 67f -
Fri 11/17 12:30pm 3 10 mph 1018.6mb 70f 76f
12:24pm 5 6 mph 1018.6mb 70f 76f
12:18pm 3 13 mph 1018.8mb 70f 76f
12:12pm 6 10 mph 1018.9mb 69f 76f
12:06pm 3 14 mph 1018.9mb 69f 75f
12:00pm 5 9 mph 1018.9mb 69f 74f
11:54am 7 13 mph 1019.1mb 69f 74f
11:48am 5 14 mph 1019.2mb 69f 74f
11:42am 8 13 mph 1019.3mb 69f 73f
11:36am 9 14 mph 1019.3mb 69f 73f
11:30am 10 13 mph 1019.4mb 69f 73f
11:24am 5 11 mph 1019.6mb 69f 73f
11:18am 8 13 mph 1019.8mb 69f 73f
11:12am 8 11 mph 1020mb 69f 73f
11:06am 8 10 mph 1020.1mb 69f 72f
11:00am 6 13 mph 1020.2mb 69f 72f
10:54am 9 13 mph 1020.4mb 69f 71f
10:48am 7 10 mph 1020.4mb 69f 71f
10:42am 7 11 mph 1020.5mb 69f 71f
10:36am 8 10 mph 1020.7mb 69f 70f
10:30am 6 9 mph 1020.9mb 69f 70f
10:24am 6 9 mph 1021mb 68f 70f
10:18am 8 9 mph 1021mb 68f 69f
10:12am 3 9 mph 1021mb 68f 69f
10:06am 6 8 mph 1021.1mb 68f 69f
10:00am 2 5 mph 1021.3mb 68f 69f
9:54am 3 5 mph 1021.4mb 68f 69f
9:48am 3 3 mph 1021.4mb 68f 68f
9:42am 2 5 mph 1021.4mb 68f 67f
9:36am 2 5 mph 1021.4mb 68f 66f
9:30am 3 8 mph 1021.4mb 68f 65f
9:24am 5 6 mph 1021.5mb 68f 65f
9:18am 3 6 mph 1021.5mb 68f 65f
9:12am 5 6 mph 1021.5mb 68f 65f
9:06am 1 3 mph 1021.6mb 68f 64f
9:00am 1 5 mph 1021.5mb 68f 64f
8:54am 2 3 mph 1021.4mb 68f 63f
8:48am 1 5 mph 1021.4mb 68f 63f
8:42am 1 5 mph 1021.4mb 68f 63f
8:36am  -  3 mph 1021.4mb 68f 63f
8:30am 1 3 mph 1021.4mb 68f 62f
8:24am  -  5 mph 1021.5mb 68f 62f
8:18am 1 3 mph 1021.5mb 68f 62f
8:12am 1 3 mph 1021.5mb 68f 61f
8:06am 1 2 mph 1021.4mb 68f 61f
8:00am  -  3 mph 1021.3mb 68f 61f
7:54am 2 5 mph 1021.3mb 68f 61f
7:48am 1 3 mph 1021.2mb 68f 60f
7:42am  -  2 mph 1021.2mb 68f 60f
7:36am  -  3 mph 1021.2mb 68f 60f
7:30am 2 5 mph 1021mb 68f 60f
7:24am 1 3 mph 1021mb 68f 59f
7:18am 2 5 mph 1021mb 68f 59f
7:12am  -  2 mph 1021.1mb 68f 59f
7:06am  -  2 mph 1021mb 68f 59f
7:00am  -  2 mph 1020.9mb 68f 59f
6:54am 1 2 mph 1020.8mb 68f 59f
6:48am 1 3 mph 1020.7mb 68f 58f
6:42am 1 2 mph 1020.6mb 68f 58f
6:36am  -  3 mph 1020.7mb 68f 58f
6:30am 1 3 mph 1020.6mb 68f 58f
6:24am  -  1 mph 1020.5mb 68f 58f
6:18am  -  1 mph 1020.4mb 68f 59f
6:12am  -  1 mph 1020.3mb 68f 59f
6:06am  -  2 mph 1020.3mb 68f 59f
6:00am  -  2 mph 1020.3mb 68f 59f
5:54am  -  2 mph 1020.3mb 68f 59f
5:48am  -  1 mph 1020.2mb 68f 59f
5:42am  -  2 mph 1020mb 68f 59f
5:36am  -  2 mph 1020mb 68f 58f
5:30am 1 1 mph 1019.9mb 68f 58f
5:24am  -  0 mph 1019.9mb 68f 58f
5:18am  -  0 mph 1019.8mb 68f 59f
5:12am  -  0 mph 1019.7mb 68f 59f
5:06am  -  0 mph 1019.5mb 68f 59f
5:00am  -  0 mph 1019.4mb 68f 60f
4:54am  -  0 mph 1019.4mb 68f 60f
4:48am  -  0 mph 1019.3mb 68f 60f
4:42am  -  1 mph 1019.3mb 68f 60f
4:36am  -  2 mph 1019.2mb 68f 60f
4:30am 1 1 mph 1019.3mb 68f 60f
4:24am  -  0 mph 1019.5mb 68f 60f
4:18am  -  0 mph 1019.5mb 68f 60f
4:12am  -  0 mph 1019.4mb 68f 60f
4:06am  -  0 mph 1019.3mb 68f 60f
4:00am  -  0 mph 1019.4mb 68f 60f
3:54am  -  0 mph 1019.3mb 68f 59f
3:48am  -  0 mph 1019.4mb 68f 59f
3:42am  -  0 mph 1019.3mb 68f 59f
3:36am  -  0 mph 1019.3mb 68f 59f
3:30am  -  0 mph 1019.4mb 69f 59f
3:24am  -  0 mph 1019.3mb 69f 59f
3:18am  -  1 mph 1019.3mb 69f 59f
3:12am  -  1 mph 1019.4mb 69f 59f
3:06am  -  1 mph 1019.5mb 69f 59f
3:00am  -  1 mph 1019.5mb 69f 59f
2:54am 1 1 mph 1019.5mb 69f 60f
2:48am  -  2 mph 1019.5mb 69f 60f
2:42am 1 2 mph 1019.4mb 69f 60f
2:36am 2 2 mph 1019.4mb 69f 60f
2:30am 1 2 mph 1019.4mb 69f 60f
2:24am  -  1 mph 1019.4mb 69f 60f
2:18am  -  1 mph 1019.4mb 69f 60f
2:12am  -  0 mph 1019.5mb 69f 60f
2:06am  -  1 mph 1019.6mb 69f 60f
2:00am  -  1 mph 1019.7mb 69f 60f
1:54am  -  1 mph 1019.7mb 69f 60f